sat.trackr.live / text

‹ back to catalog

STARLINK-5813

NORAD 55790 · 2023-028BB

PAYLOAD ACTIVE UNKNOWN

§ Identity

Operator
Country
US
Launch date
2023-03-03
Launch site
AFWTR
Launch vehicle
Mass (kg)
RCS (m²)

Purposes: comms

External: N2YO · Heavens-Above · Gunter

§ Orbital elements

Epoch: 2026-09-20T22:00:03.000096Z

Period
95.68 min
Inclination
70.0008°
Eccentricity
0.0003850
Mean motion
15.05037961 rev/d
Perigee alt
548.7 km
Apogee alt
554.1 km
Semi-major
6,929.5 km
B*
5.9024e-3
RAAN
72.1350°
Arg perigee
269.9600°
Mean anomaly
12.3327°
Rev number
561

§ Raw data

STARLINK-58131 55790U 23028BB  26263.91670139  .00084934  00000+0  59024-2 0  99952 55790  70.0008  72.1350 0003850 269.9600  12.3327 15.05037961  5616

JSON: /api/v1/satellites/55790 · /tle

For live sub-satellite position, see the globe view (requires WebGL).

§ Visibility from observer

Set your observer location to see the next 7 days of passes ≥ 10°. The values pass through the URL so the page stays shareable.

No JS? Fill the form by hand. The geolocation button needs JavaScript.